Location: Unspecified
(0.0000°N, 0.0000°E)
Time: 13:28:01
(UTC+00:00)

Vanguard 2 - Pass Details

Date: 20 September 2019
Orbit: 554 x 2937 km, 32.9° (Epoch: 13 October)

Event Time Altitude Azimuth Distance (km) Brightness Sun altitude
Rises 18:12:40 0° 210° (SSW) 5,013 12.1 -4.8°
Reaches altitude 10° 18:19:17 10° 182° (S) 4,621 11.5 -6.5°
Maximum altitude 18:24:02 12° 160° (SSE) 4,785 11.4 -7.6°
Drops below altitude 10° 18:29:22 10° 140° (SE) 5,315 11.4 -9.0°
Enters shadow 18:36:04 - 120° (ESE) 6,278 11.6 -10.7°
Sets 18:38:41 0° 114° (ESE) 6,701 - -11.3°
